Location: *
(49.9853°N, 3.5569°E)
Time: 13:20:59
(UTC+00:00)

Cosmos 389 Rocket - Pass Details

Date: 22 September 2019
Orbit: 444 x 478 km, 81.1° (Epoch: 20 October)

Event Time Altitude Azimuth Distance (km) Brightness Sun altitude
Rises 18:54:43 0° 346° (NNW) 2,456 6.6 -12.0°
Reaches altitude 10° 18:56:47 10° 345° (NNW) 1,579 5.6 -12.3°
Maximum altitude 19:00:13 76° 260° (W) 466 2.5 -12.8°
Drops below altitude 10° 19:03:38 10° 175° (S) 1,568 4.9 -13.3°
Enters shadow 19:05:25 - 173° (S) 2,322 5.8 -13.6°
